Regional Weather Roundup
Issued by NWS

Current Version | Previous Version | Text Only | Print | Product List | Glossary On
Versions: 1 2 3 4 5 6 7 8 9 10 11 12 13 14 15 16 17 18 19 20 21 22 23 24 25 26 27 28 29 30 31 32 33 34 35 36 37 38 39 40 41 42 43 44 45 46 47 48 49 50
000
ASUS44 KMEG 190410
RWRTN
TENNESSEE HOURLY STATE WEATHER ROUNDUP
NATIONAL WEATHER SERVICE MEMPHIS TN
1000 PM CST THU DEC 18 2014

TNZ002-004-019-021-049-052-054-088>092-190500-
WEST TENNESSEE

CITY           SKY/WX    TMP DP  RH WIND       PRES   REMARKS
MEMPHIS INTL   CLOUDY    44  38  79 NE5       30.24R
NWS MEMPHIS      N/A     43 N/A N/A MISG        N/A
JACKSON        CLOUDY    41  35  79 CALM      30.24S
DYERSBURG      CLOUDY    39  27  60 NE5       30.27R
UNION CITY     CLOUDY    36  32  87 E5        30.25R WCI  32
PARIS          CLOUDY    34  30  86 NE3       30.25R
HUNTINGDON     CLOUDY    35  31  86 NE3       30.25R
LEXINGTON      CLOUDY    37  34  87 N5        30.24R WCI  34
SAVANNAH       CLOUDY    41  36  81 CALM      30.24R
$$

TNZ008-025-027-028-033-062-065-066-190500-
NORTH MIDDLE TENNESSEE

CITY           SKY/WX    TMP DP  RH WIND       PRES   REMARKS
NASHVILLE      CLOUDY    37  32  82 N3        30.25R
CLARKSVILLE    CLOUDY    35  30  82 CALM      30.26R
SMYRNA         CLOUDY    37  32  82 CALM      30.25S
COOKEVILLE     CLEAR     30  28  93 CALM      30.20R
CROSSVILLE     CLEAR     35  29  78 CALM      30.17S
$$

TNZ061-075-076-078-094-096-097-190500-
SOUTH MIDDLE TENNESSEE

CITY           SKY/WX    TMP DP  RH WIND       PRES   REMARKS
FAYETTEVILLE   CLEAR     34  32  93 CALM      30.21R
TULLAHOMA      CLEAR     30  28  93 CALM      30.21R
WINCHESTER     CLEAR     36  34  93 CALM      30.21R
MCMINNVILLE    CLOUDY    37  36  93 CALM      30.21R
SHELBYVILLE    CLOUDY    34  34 100 CALM      30.23R
$$

TNZ017-018-042-046-047-190500-
NORTHEAST TENNESSEE

CITY           SKY/WX    TMP DP  RH WIND       PRES   REMARKS
TRI CITIES     CLOUDY    40  31  70 CALM      30.14S
ELIZABETHTON   CLOUDY    36  28  75 CALM      30.14R
$$

TNZ012-013-036-069-073-074-190500-
CENTRAL EAST TENNESSEE

CITY           SKY/WX    TMP DP  RH WIND       PRES   REMARKS
KNOXVILLE      CLOUDY    41  29  62 N3        30.18R
OAK RIDGE      CLOUDY    41  30  65 CALM      30.20R
GATLINBURG     CLOUDY    39  30  70 CALM      30.17R
MORRISTOWN     CLOUDY    41  28  60 W3        30.17R
$$

TNZ083-085-099-190500-
SOUTHEAST TENNESSEE

CITY           SKY/WX    TMP DP  RH WIND       PRES   REMARKS
CHATTANOOGA    MOCLDY    45  36  70 CALM      30.19S
$$

SKY/WX REPORTED AS FAIR MEANS FEW OR NO CLOUDS BELOW
12 THOUSAND FEET.



USA.gov is the U.S. government's official web portal to all federal, state and local government web resources and services.